Regional Weather Roundup
Issued by NWS

Home | Current Version | Previous Version | Graphics & Text | Print | Product List | Glossary On
Versions: 1 2 3 4 5 6 7 8 9 10 11 12 13 14 15 16 17 18 19 20 21 22 23 24 25 26 27 28 29 30 31 32 33 34 35 36 37 38 39 40 41 42 43 44 45 46 47 48 49 50
000
ASUS43 KDTX 260801
RWRMI
MICHIGAN HOURLY REGIONAL WEATHER ROUNDUP
NATIONAL WEATHER SERVICE DETROIT/PONTIAC MI
300 AM EST SUN FEB 26 2017

NOTE: "FAIR" INDICATES FEW OR NO CLOUDS BELOW 12,000 FEET WITH NO
SIGNIFICANT WEATHER AND/OR OBSTRUCTION TO VISIBILITY.

MIZ047>049-052>055-059>063-066>070-074>076-081>083-260900-
SOUTHEAST LOWER MICHIGAN

CITY           SKY/WX    TMP DP  RH WIND       PRES   REMARKS
ADRIAN         CLOUDY    24  18  77 W7        30.04R WCI  16
ALMA           CLEAR     22  17  79 SW5       29.99R WCI  16
ANN ARBOR      CLOUDY    24  17  74 SW9       30.01R WCI  14
BAD AXE        CLOUDY    26  16  66 W15       29.93R WCI  13
CARO           CLOUDY    25  17  72 W12G18    29.96R WCI  14
DETROIT CITY   CLOUDY    25  17  72 W10       30.01R WCI  15
DETROIT        FLURRIES  25  16  68 W12       30.03R WCI  14
FLINT          CLOUDY    24  14  65 W13       29.99R WCI  12
GROSSE ILE     CLOUDY    25  17  69 W8        30.02R WCI  17
HILLSDALE      FLURRIES  23  19  86 W6        30.01R WCI  16
HOWELL         FLURRIES  24  17  75 W10G16    29.99R WCI  13

CITY           SKY/WX    TMP DP  RH WIND       PRES   REMARKS
JACKSON        CLOUDY    23  17  78 W8        30.01R WCI  14
LAMBERTVILLE   CLOUDY    27  17  66 W6        30.04S WCI  20
LANSING        CLOUDY    22  14  71 SW7       30.01R WCI  13
LAPEER         FLURRIES  25  14  64 W10G17    29.98R WCI  14
MASON          CLOUDY    24  19  83 W5        30.01R WCI  18
MONROE         CLOUDY    26  18  72 W10       30.03S WCI  16
MT. CLEMENS    MIX PCPN  25  15  65 W12       29.98R WCI  15
PONTIAC        CLOUDY    23  16  74 W13       29.97R WCI  11
PORT HOPE        N/A     27  19  72 W9        29.91R WCI  18
PORT HURON     CLOUDY    25  16  68 W7        29.98R WCI  17
TRI CITIES     CLOUDY    25  17  72 W12       29.98R WCI  14
MIDLAND        MOCLDY    25  15  65 SW9       29.97R WCI  15
TROY           FLURRIES  26  15  63 W8        30.01S WCI  17
SAGINAW HB     CLOUDY    27  16  63 SW9       29.98R WCI  17
$$
MIZ043>046-050>051-056>058-064>065-071>073-077>080-260900-
SOUTHWEST LOWER MICHIGAN

CITY           SKY/WX    TMP DP  RH WIND       PRES   REMARKS
BATTLE CREEK   CLOUDY    23  18  81 SW7       30.02R WCI  15
BENTON HARBOR  MOCLDY    27  15  61 W9        30.05R WCI  18
BIG RAPIDS     CLEAR     19  14  81 SW7       29.94R WCI   9
COLDWATER      CLOUDY    24  21  87 W6        30.03R WCI  17
FREMONT        FAIR      18  14  86 SW5       29.98R WCI  11
HOLLAND        CLOUDY    28  16  60 W12       30.02R WCI  18
GRAND RAPIDS   CLOUDY    23  15  71 SW6       30.00R WCI  16
IONIA          FAIR      21  15  77 SW7       29.99R WCI  12
KALAMAZOO      CLOUDY    23  15  71 SW6       30.03R WCI  16
LUDINGTON      CLEAR     27  18  67 W7G16     29.95S WCI  19
MARSHALL       CLOUDY    24  19  83 SW5       30.02R WCI  18
MOUNT PLEASANT CLEAR     22  16  76 SW7       29.96R WCI  14
MUSKEGON       CLOUDY    29  16  58 W9        30.00R WCI  20
SOUTH HAVEN    CLOUDY    28  17  63 W3        30.04R
$$
MIZ016>042-260900-
NORTHERN LOWER MICHIGAN

CITY           SKY/WX    TMP DP  RH WIND       PRES   REMARKS
ALPENA         MOCLDY    23  15  71 SW6       29.89R WCI  16
BEAVER ISLAND  CLEAR     25  16  67 W12       29.85S WCI  14
BELLAIRE       CLOUDY    25  18  75 CALM      29.90S
CADILLAC       CLEAR      8   5  86 CALM      29.88S
CHARLEVOIX     MOCLDY    27  17  65 W14       29.89F WCI  16
FRANKFORT      CLEAR     28  19  69 W9G18     29.92R WCI  19
GAYLORD        CLOUDY    20  13  74 SW5       29.85R WCI  13
GRAYLING       PTCLDY    20  14  76 SW3       29.89R
HARBOR SPRINGS MOCLDY    25  14  62 W7        29.86S WCI  17
HOUGHTON LAKE  CLEAR     19  13  77 SW6       29.90S WCI  11
MANISTEE       PTCLDY    26  17  68 W14       29.94R WCI  14
OSCODA         CLOUDY    22  13  67 W5        29.92R WCI  16
PELLSTON       PTCLDY    20  10  65 SW5       29.86R WCI  13
TRAVERSE CITY  CLEAR     17  13  84 CALM      29.90S
$$
MIZ007>008-015-260900-
EASTERN UPPER MICHIGAN

CITY           SKY/WX    TMP DP  RH WIND       PRES   REMARKS
KINROSS        CLOUDY    20  14  77 W7        29.81R WCI  11
MACKINAC ISLAN CLOUDY    24  16  71 W15       29.83S WCI  12
NEWBERRY       CLEAR     16  10  79 SW10      29.80S WCI   3
S. S. MARIE    CLOUDY    22  16  78 SW8       29.79S WCI  12
MUNISING         N/A     20  10  65 SW9       29.79F WCI   9
$$
MIZ004>006-011>014-085-260900-
CENTRAL UPPER MICHIGAN

CITY           SKY/WX    TMP DP  RH WIND       PRES   REMARKS
MANISTIQUE     CLEAR     17  11  78 SW5       29.83F WCI  10
ESCANABA       CLEAR     14   8  77 W10       29.85S WCI   1
MENOMINEE      CLOUDY    17  11  77 SW7       29.90S WCI   8
SAWYER-GWINN   PTCLDY    12   8  82 SW6       29.78S WCI   3
$$
MIZ001>003-009>011-084-260900-
WESTERN UPPER MICHIGAN

CITY           SKY/WX    TMP DP  RH WIND       PRES   REMARKS
IRON MOUNTAIN  CLOUDY    20  10  65 SW6       29.79F WCI  12
HOUGHTON       PTCLDY    23  14  68 SW12      29.69F WCI  12
COPPER HARBOR    N/A     23  19  85 SW8       29.70F WCI  14
IRONWOOD       LGT SNOW  22  18  85 SW13      29.71F FOG     WCI  10
$$

ABBREVIATIONS USED IN REMARKS
   TC - TEMPERATURE IN CELSIUS
  WCI - WIND CHILL INDEX
   HX - HEAT INDEX
  VSB - VISIBILITY





USA.gov is the U.S. government's official web portal to all federal, state and local government web resources and services.